COSMOS 2535 DEB, 44631

Orbit data source: Space-Track

COSMOS 2535 DEB, 44631 is space debris in SSO originally from a launch on Wed, 10 Jul 2019 UTC launched from the Plesetsk Missile And Space Complex (PKMTR). Debris objects in space refer to the collection of defunct objects orbiting the Earth. Examples of debris include non-operational satellites, rocket bodies, and fragments generated from explosions, collisions, or faulty payload assembly.

Loading next visibility...
Identifier
44631, 2019-039H
Orbit
SSO
Country
Flag of CISCIS
Related business
Manufacturer
Unknown
Mission
Spacecraft
Bus & Motor
Unknown
Mass
Unknown
Launch date (UTC)
2019-07-10 (7 years ago)
Launch vehicle
Unknown
Launch site
Plesetsk Missile And Space Complex (PKMTR)
Object type
Payload
Rocket body
Debris
Shape & HBR
Unknown shape, 0.1 m
Radar Cross Section
Medium (>0.1 m² and <1 m²)

Expand to show TLE details & history
Last TLE update: 3 days ago

TLE from 3 days ago
0 COSMOS 2535 DEB
1 44631U 19039H   26162.35790010  .00006224  00000-0  34435-3 0  9998
2 44631  97.5206 201.8051 0020497  83.2752 277.0811 15.14033250364064
Epoch: 2026-06-11T08:35Z
TLE epoch observation values (Epoch: 2026-06-11T08:35:22.568Z)
Latitude
-0.00007°
Longitude
173.25823°
Altitude
525.278 km
Speed
7.601 km/s
True Right ascension
13h 27m 13s
True Declination
0° 00' 00"
Sunlit
Object was in full shadow at epoch
Visualization orbit readout
Latitude
Unknown
Longitude
Unknown
Altitude
Unknown
Speed
Unknown
Apparent Right ascension
Unknown
Apparent Declination
Unknown
Sunlit
N/A
Visualization observer readout
Local Sidereal Time
10:56:27
Azimuth
Unknown
Elevation
Unknown
Doppler factor
Unknown
Orbital elements
Apogee altitude
535.035 km
Perigee altitude
506.753 km
Semi-major axis
6,899.031 km
Eccentricity
0.00205
Inclination
97.5206°
RAAN
201.8051°
Arg. of periapsis
83.2752°
True anomaly
276.84794°
Mean anomaly
277.0811°
Eccentric anomaly
276.96453°
Mean motion
3.78757 °/min
Orbital period
95.05 mins
BSTAR
0.00034435
Loading maneuver chart data...
Computing Atmospheric mass density...

Documentation

Showing up to 5 results
|